Morro Bay Weather Center

Moon Phase Calendar



Online Cameras

 


      

Current Conditions in Morro Bay
3/1/2024 10:08:10 AM

56°F
Feels Like 56
Clouds
Humidity
87%
Pressure
30.06"
Wind
14.2 mph (SSW)
Dew Point
52°F
UV Index
2/10 (Low)
Visibility
6 mi

Hourly Forecast

Date & Time Fri, Mar 1
10:00 AM
Fri, Mar 1
11:00 AM
Fri, Mar 1
12:00 PM
Fri, Mar 1
1:00 PM
Fri, Mar 1
2:00 PM
Fri, Mar 1
3:00 PM
Fri, Mar 1
4:00 PM
Fri, Mar 1
5:00 PM
Fri, Mar 1
6:00 PM
Fri, Mar 1
7:00 PM
Fri, Mar 1
8:00 PM
Fri, Mar 1
9:00 PM
Fri, Mar 1
10:00 PM
Fri, Mar 1
11:00 PM
Sat, Mar 2
12:00 AM
Sat, Mar 2
1:00 AM
Sat, Mar 2
2:00 AM
Sat, Mar 2
3:00 AM
Sat, Mar 2
4:00 AM
Sat, Mar 2
5:00 AM
Sat, Mar 2
6:00 AM
Sat, Mar 2
7:00 AM
Sat, Mar 2
8:00 AM
Sat, Mar 2
9:00 AM
Sat, Mar 2
10:00 AM
Sat, Mar 2
11:00 AM
Sat, Mar 2
12:00 PM
Sat, Mar 2
1:00 PM
Sat, Mar 2
2:00 PM
Sat, Mar 2
3:00 PM
Sat, Mar 2
4:00 PM
Sat, Mar 2
5:00 PM
Sat, Mar 2
6:00 PM
Sat, Mar 2
7:00 PM
Sat, Mar 2
8:00 PM
Sat, Mar 2
9:00 PM
Sat, Mar 2
10:00 PM
Sat, Mar 2
11:00 PM
Sun, Mar 3
12:00 AM
Sun, Mar 3
1:00 AM
Sun, Mar 3
2:00 AM
Sun, Mar 3
3:00 AM
Sun, Mar 3
4:00 AM
Sun, Mar 3
5:00 AM
Sun, Mar 3
6:00 AM
Sun, Mar 3
7:00 AM
Sun, Mar 3
8:00 AM
Sun, Mar 3
9:00 AM
Condition
Rain

Clouds

Clouds

Rain

Rain

Clouds

Clouds

Rain

Rain

Rain

Rain

Rain

Rain

Rain

Rain

Rain

Rain

Rain

Rain

Rain

Rain

Rain

Rain

Rain

Rain

Rain

Rain

Rain

Rain

Rain

Rain

Rain

Rain

Rain

Rain

Rain

Rain

Rain

Rain

Rain

Rain

Rain

Rain

Rain

Rain

Clouds

Clouds

Clouds
Temperature 56°F56°F57°F57°F57°F58°F58°F57°F56°F56°F56°F56°F55°F55°F55°F55°F55°F55°F55°F54°F53°F53°F52°F52°F53°F54°F54°F54°F54°F54°F54°F53°F53°F53°F53°F53°F53°F53°F52°F52°F51°F51°F51°F50°F50°F50°F52°F53°F
Feels Like 56°F56°F56°F56°F57°F57°F57°F56°F56°F55°F55°F55°F54°F54°F54°F54°F54°F54°F54°F53°F52°F52°F51°F51°F51°F52°F52°F53°F53°F53°F53°F52°F52°F51°F51°F52°F52°F52°F51°F51°F50°F50°F50°F49°F49°F49°F50°F51°F
Cloudiness 95%93%94%94%90%89%90%99%99%99%92%92%94%100%100%100%100%94%93%82%74%82%87%89%91%100%100%98%97%94%89%92%95%95%90%92%93%95%95%96%94%89%91%58%54%46%38%38%
Visibility 6 mi6 mi6 mi6 mi6 mi6 mi6 mi6 mi6 mi6 mi6 mi6 mi6 mi6 mi6 mi6 mi6 mi6 mi6 mi6 mi6 mi6 mi6 mi6 mi6 mi6 mi6 mi6 mi6 mi6 mi6 mi6 mi6 mi6 mi6 mi6 mi6 mi6 mi6 mi6 mi6 mi6 mi6 mi6 mi6 mi6 mi6 mi6 mi
Precipitation 90%70%83%82%74%74%80%52%59%75%73%83%88%97%99%100%100%100%100%78%80%88%95%98%98%97%95%99%99%99%99%96%99%98%97%100%100%89%79%75%76%76%77%55%39%39%35%27%
Humidity 86%85%85%84%82%78%80%81%82%83%83%83%87%89%87%87%88%84%84%83%83%86%87%84%79%77%78%77%77%75%75%80%81%81%80%81%83%82%83%83%83%84%85%84%82%80%78%73%
Dew Point 52°F52°F52°F52°F52°F50°F50°F50°F50°F50°F50°F50°F50°F51°F50°F50°F50°F49°F49°F48°F47°F47°F47°F46°F45°F46°F46°F46°F46°F45°F45°F46°F46°F46°F46°F46°F47°F46°F46°F46°F45°F45°F46°F45°F43°F43°F44°F44°F
Pressure 30.06"30.06"30.06"30.03"30.03"30"30"29.97"30"30"30"30"30"30"29.97"29.97"29.94"29.94"29.94"29.94"29.94"29.97"29.97"30"30"30"30"29.97"29.97"29.94"29.94"29.94"29.97"29.97"30"30"30"30"30"30.03"30.03"30"30"30.03"30.03"30.06"30.09"30.09"
Wind Speed 11.1 mph10.9 mph10.9 mph10.9 mph11.9 mph13 mph13.6 mph15.5 mph19 mph18.4 mph19 mph18.3 mph19.3 mph19 mph18.9 mph18.9 mph20.3 mph20.5 mph21.9 mph19.8 mph17.7 mph16 mph14.1 mph16.4 mph14.2 mph17.4 mph17.9 mph18.3 mph18.8 mph17.2 mph16.6 mph17.9 mph18 mph17.1 mph16.3 mph17.2 mph16 mph14.2 mph12.6 mph11.4 mph10.8 mph10 mph10.2 mph10 mph9.1 mph8.8 mph8.3 mph8.8 mph
Wind
Direction
206°
SSW
218°
SW
226°
SW
228°
SW
229°
SW
221°
SW
209°
SSW
206°
SSW
219°
SW
218°
SW
228°
SW
226°
SW
230°
SW
230°
SW
228°
SW
229°
SW
232°
SW
239°
WSW
245°
WSW
255°
WSW
263°
W
262°
W
269°
W
277°
W
266°
W
263°
W
261°
W
265°
W
264°
W
260°
W
254°
WSW
254°
WSW
255°
WSW
259°
W
258°
WSW
257°
WSW
259°
W
270°
W
277°
W
278°
W
286°
WNW
288°
WNW
298°
WNW
309°
NW
313°
NW
316°
NW
312°
NW
303°
WNW

Daily Forecast

Date High Low Precip. Humidity
Today
Mar 1

Rain
58 °F
55 °F
95%
86%
Saturday
Mar 2

Rain
55 °F
52 °F
100%
72%
Sunday
Mar 3

Rain
55 °F
49 °F
92%
71%
Monday
Mar 4

Rain
57 °F
48 °F
31%
73%
Tuesday
Mar 5

Clouds
58 °F
50 °F
0%
68%
Wednesday
Mar 6

Rain
58 °F
50 °F
42%
74%
Thursday
Mar 7

Clear
58 °F
49 °F
0%
59%
Friday
Mar 8

Clear
62 °F
48 °F
0%
48%
Saturday
Mar 9

Clouds
57 °F
50 °F
2%
68%
Sunday
Mar 10

Rain
56 °F
48 °F
34%
62%
Monday
Mar 11

Rain
56 °F
51 °F
100%
64%
Tuesday
Mar 12

Clouds
57 °F
48 °F
0%
61%
Wednesday
Mar 13

Clear
61 °F
49 °F
0%
57%
Thursday
Mar 14

Clear
63 °F
51 °F
0%
63%
Friday
Mar 15

Clouds
69 °F
55 °F
0%
58%
Saturday
Mar 16

Clear
66 °F
56 °F
0%
54%

Temperature 8-14 Day Outlook



Precipitation 8-14 Day Outlook




Quick Links
Morro Bay News
Morro Bay Photos
Morro Bay Videos




About Us
Contact Us
Site Map
Search Site
Advertise With Us
   
MorroBay.USCoast.info
THE MORRO BAY WEBSITE

Copyright 2024, Coastal Town
Privacy    |    Legal